Lincoln, IL

6:17 PM CDT on October 22, 2019 (GMT -0500)
Lincoln

Weather History for KAAA - August, 2019

Change the Weather History Date:

Thursday, August 29, 2019

  Actual Average (KSPI) Record (KSPI)
Temperature  
Mean Temperature 70 °F -  
Max Temperature 84 °F 84 °F 99 °F (1984)
Min Temperature 58 °F 62 °F 43 °F (1986)
Cooling Degree Days 6    
Growing Degree Days 20 (Base 50)    
Moisture  
Dew Point 67 °F    
Average Humidity 83    
Maximum Humidity 99    
Minimum Humidity 57    
Precipitation  
Precipitation 0.00 in - - ()
Sea Level Pressure  
Sea Level Pressure 29.99 in    
Wind  
Wind Speed 2 mph ()    
Max Wind Speed 12 mph    
Max Gust Speed -    
Visibility 10.0 miles    
Events Rain    
Averages and records for this station are not official NWS values.
T = Trace of Precipitation, MM = Missing Value Source: Averaged Metar Reports

Daily Weather History Graph

Daily Weather History Graph

Search for Another Location

Airport or City:

Astronomy

Aug. 29, 2019 Rise Set
Actual Time 6:21 AM CDT 7:33 PM CDT
Civil Twilight 5:53 AM CDT 8:01 PM CDT
Nautical Twilight 5:20 AM CDT 8:35 PM CDT
Astronomical Twilight 4:45 AM CDT 9:10 PM CDT
Moon 5:06 AM CDT (8/29) 7:30 PM CDT (8/29)
Length of Visible Light 14h 08m
Length of Day
13h 12m
Waning Crescent, 1% of the Moon is Illuminated
Aug 29
Waning Crescent
Aug 30
New
Sep 5
First Quarter
Sep 13
Full
Sep 21
Last Quarter

Hourly Weather History & Observations

Time (CDT) Temp. Heat Index Dew Point Humidity Pressure Visibility Wind Dir Wind Speed Gust Speed Precip Events Conditions
12:15 AM 60.3 °F - 58.3 °F 93% 30.02 in 10.0 mi Calm Calm - N/A   Clear
2:15 AM 59.4 °F - 58.1 °F 96% 30.02 in 10.0 mi Calm Calm - N/A   Mostly Cloudy
2:35 AM 59.0 °F - 57.6 °F 95% 30.02 in 10.0 mi Calm Calm - N/A   Mostly Cloudy
2:55 AM 59.4 °F - 58.1 °F 96% 30.02 in 10.0 mi Calm Calm - N/A   Mostly Cloudy
3:15 AM 59.0 °F - 57.7 °F 96% 30.03 in 10.0 mi Calm Calm - N/A   Scattered Clouds
3:35 AM 59.0 °F - 57.7 °F 96% 30.03 in 10.0 mi Calm Calm - N/A   Clear
3:55 AM 59.2 °F - 58.1 °F 96% 30.03 in 10.0 mi Calm Calm - N/A   Clear
4:15 AM 58.8 °F - 57.7 °F 96% 30.03 in 10.0 mi Calm Calm - N/A   Clear
4:35 AM 58.3 °F - 57.4 °F 97% 30.03 in 10.0 mi Calm Calm - N/A   Clear
4:55 AM 58.1 °F - 57.4 °F 97% 30.03 in 10.0 mi Calm Calm - N/A   Clear
5:15 AM 58.3 °F - 57.7 °F 98% 30.04 in 10.0 mi South 3.5 mph - N/A   Clear
5:35 AM 58.3 °F - 57.7 °F 98% 30.03 in 10.0 mi South 3.5 mph - N/A   Clear
5:55 AM 58.1 °F - 57.7 °F 99% 30.04 in 10.0 mi Calm Calm - N/A   Scattered Clouds
6:15 AM 58.5 °F - 58.1 °F 99% 30.04 in 10.0 mi Calm Calm - N/A   Mostly Cloudy
6:35 AM 59.5 °F - 59.0 °F 98% 30.04 in 10.0 mi Calm Calm - N/A   Overcast
6:55 AM 60.4 °F - 59.7 °F 97% 30.05 in 10.0 mi Calm Calm - N/A   Overcast
7:15 AM 61.0 °F - 60.3 °F 97% 30.04 in 10.0 mi Calm Calm - N/A   Overcast
7:35 AM 62.4 °F - 61.3 °F 96% 30.04 in 10.0 mi SSE 3.5 mph - N/A   Mostly Cloudy
7:55 AM 64.2 °F - 62.2 °F 93% 30.04 in 10.0 mi South 4.6 mph - N/A   Overcast
8:15 AM 66.2 °F - 63.0 °F 89% 30.03 in 10.0 mi South 3.5 mph - N/A   Overcast
8:35 AM 67.3 °F - 63.5 °F 88% 30.03 in 10.0 mi South 3.5 mph - N/A   Mostly Cloudy
8:55 AM 69.6 °F - 63.7 °F 81% 30.03 in 10.0 mi South 4.6 mph - N/A   Scattered Clouds
9:15 AM 73.2 °F - 64.0 °F 73% 30.03 in 10.0 mi SSW 3.5 mph - N/A   Scattered Clouds
9:35 AM 75.6 °F - 63.1 °F 65% 30.03 in 10.0 mi SSW 5.8 mph - N/A   Mostly Cloudy
9:55 AM 77.5 °F - 63.3 °F 61% 30.03 in 10.0 mi SSW 5.8 mph - N/A   Mostly Cloudy
10:15 AM 78.6 °F - 64.0 °F 61% 30.02 in 10.0 mi SSW 8.1 mph - N/A   Scattered Clouds
10:35 AM 80.2 °F 82.0 °F 64.9 °F 59% 30.02 in 10.0 mi SW 8.1 mph - N/A   Clear
10:55 AM 80.8 °F 82.5 °F 64.8 °F 58% 30.02 in 10.0 mi SW 5.8 mph - N/A   Clear
11:10 AM 80.6 °F 82.2 °F 64.0 °F 57% 30.01 in 10.0 mi SW 9.2 mph - N/A   Clear
11:35 AM 80.2 °F 82.3 °F 66.2 °F 62% 30.00 in 10.0 mi SW 4.6 mph - N/A   Clear
11:55 AM 79.2 °F - 66.6 °F 65% 30.00 in 10.0 mi SW 8.1 mph - N/A   Scattered Clouds
12:15 PM 78.8 °F - 67.5 °F 68% 30.00 in 10.0 mi SW 5.8 mph - N/A   Scattered Clouds
12:35 PM 77.9 °F - 67.5 °F 70% 30.00 in 10.0 mi SW 4.6 mph - N/A   Scattered Clouds
12:55 PM 77.5 °F - 67.6 °F 71% 30.00 in 10.0 mi SSW 5.8 mph - N/A   Mostly Cloudy
1:15 PM 77.4 °F - 68.2 °F 73% 29.99 in 10.0 mi SSW 3.5 mph - N/A   Mostly Cloudy
1:35 PM 76.3 °F - 68.9 °F 78% 29.94 in 10.0 mi SSE 11.5 mph - N/A   Mostly Cloudy
1:55 PM 76.3 °F - 69.3 °F 79% 29.97 in 10.0 mi SW 3.5 mph - N/A Rain Light Rain
2:15 PM 75.7 °F - 70.3 °F 83% 29.98 in 10.0 mi NNW 5.8 mph - N/A Rain Light Rain
2:35 PM 76.6 °F - 70.3 °F 81% 29.94 in 10.0 mi SSW 4.6 mph - N/A   Mostly Cloudy
2:55 PM 78.4 °F - 70.0 °F 75% 29.92 in 10.0 mi South 8.1 mph - N/A   Scattered Clouds
3:15 PM 78.1 °F - 71.2 °F 79% 29.90 in 10.0 mi South 5.8 mph - N/A   Clear
3:35 PM 79.9 °F - 72.0 °F 77% 29.93 in 10.0 mi SSW 3.5 mph - N/A   Clear
3:55 PM 81.0 °F 85.1 °F 71.6 °F 73% 29.92 in 10.0 mi SSW 5.8 mph - N/A   Scattered Clouds
4:15 PM 82.0 °F 86.7 °F 72.0 °F 71% 29.93 in 10.0 mi SW 5.8 mph - N/A   Scattered Clouds
4:35 PM 82.6 °F 87.8 °F 72.1 °F 71% 29.93 in 10.0 mi WSW 4.6 mph - N/A   Scattered Clouds
4:55 PM 83.3 °F 88.7 °F 72.1 °F 69% 29.93 in 10.0 mi WSW 4.6 mph - N/A   Scattered Clouds
5:15 PM 83.3 °F 88.7 °F 72.3 °F 69% 29.93 in 10.0 mi SW 5.8 mph - N/A   Scattered Clouds
5:35 PM 83.7 °F 89.4 °F 72.7 °F 69% 29.93 in 10.0 mi WSW 5.8 mph - N/A   Scattered Clouds
5:55 PM 82.6 °F 88.3 °F 73.0 °F 73% 29.93 in 10.0 mi SW 5.8 mph - N/A   Mostly Cloudy
6:15 PM 82.0 °F 87.7 °F 73.4 °F 75% 29.93 in 10.0 mi WSW 3.5 mph - N/A   Overcast
6:35 PM 81.5 °F 86.7 °F 73.4 °F 76% 29.93 in 10.0 mi Calm Calm - N/A   Overcast
6:55 PM 81.3 °F 86.5 °F 73.4 °F 77% 29.94 in 10.0 mi SW 3.5 mph - N/A   Overcast
7:15 PM 80.6 °F 85.4 °F 73.4 °F 79% 29.94 in 10.0 mi SW 4.6 mph - N/A   Overcast
7:35 PM 79.9 °F - 73.4 °F 80% 29.94 in 10.0 mi Calm Calm - N/A   Overcast
7:55 PM 79.2 °F - 73.4 °F 82% 29.95 in 10.0 mi Calm Calm - N/A   Mostly Cloudy
8:15 PM 77.9 °F - 73.4 °F 86% 29.95 in 10.0 mi Calm Calm - N/A   Scattered Clouds
8:35 PM 77.2 °F - 73.0 °F 87% 29.95 in 10.0 mi Calm Calm - N/A   Scattered Clouds
8:55 PM 76.6 °F - 73.0 °F 89% 29.95 in 10.0 mi SSW 3.5 mph - N/A   Clear
9:15 PM 76.5 °F - 72.9 °F 89% 29.96 in 10.0 mi Calm Calm - N/A   Clear
9:35 PM 75.2 °F - 72.5 °F 91% 29.96 in 10.0 mi South 5.8 mph - N/A   Clear
9:55 PM 73.9 °F - 72.1 °F 94% 29.97 in 10.0 mi South 3.5 mph - N/A   Clear
10:15 PM 73.9 °F - 72.3 °F 95% 29.98 in 10.0 mi Calm Calm - N/A   Clear
10:35 PM 74.3 °F - 72.0 °F 92% 29.98 in 10.0 mi Calm Calm - N/A   Scattered Clouds
10:55 PM 74.3 °F - 72.0 °F 92% 29.99 in 10.0 mi Calm Calm - N/A   Scattered Clouds
11:15 PM 74.3 °F - 72.0 °F 92% 29.99 in 10.0 mi Calm Calm - N/A   Clear
11:35 PM 73.6 °F - 71.8 °F 94% 29.98 in 10.0 mi Calm Calm - N/A   Clear
11:55 PM 73.4 °F - 71.8 °F 95% 29.98 in 10.0 mi Calm Calm - N/A   Clear